SL-8 R/B (11574 NORAD) Tracking and Keplerian Element Data

This shows tracking and keplerian element data for the satellite.

Feedback or suggestion? Click here.




ElementValue
Catalog11574
NameSL-8 R/B
Epoch Orbit37858
Epoch Day34.67498674
Epoch Year2025
RAAN109.44
Inclination74.0689
Eccentricity0.0015449
Argument of Perigee18.7158
Mean Anonmoly341.4563
Mean Motion14.41982451
Decay Rate6.17E-06
L11 11574U 79089B 25034.67498674 .00000617 00000+0 19579-3 0 9993
L22 11574 74.0689 109.4400 0015449 18.7158 341.4563 14.41982451378581



Live tracking and technical data element details for SL-8 R/B (NORAD 11574). SL-8 R/B can be tracked NOW for your location showing map with azimuth and elevation plus other details from your city location.







IsCatalogInMostPopularTable: catalog: 11574, numindb: 312
Update: records affected: 1



GetName: 11574 SL-8 R/B

Hit Count: updated at: Thu, 15 May 2025 19:25:26 GMT